Location: Hall+in+Tirol
(47.2830°N, 11.5170°E)
Time: 11:29:34
(UTC+02:00)

Daily predictions for brighter satellites

Satellite Brightness Start Highest point End
(mag) Time Altitude Azimuth Time Altitude Azimuth Time Altitude Azimuth
Cosmos 1844 Rocket 3.7 20:49:01 10° NNW 20:53:59 32° NE 20:58:56 10° ESE
Cosmos 1992 Rocket 4.0 20:49:45 10° SSW 20:54:58 72° ESE 21:00:13 10° NNE
GENESIS II 4.4 20:51:46 10° SW 20:55:49 82° NW 20:59:54 10° NE
Cosmos 2278 Rocket 4.0 20:52:47 10° N 20:56:42 19° NE 21:00:35 10° E
Cosmos 1869 4.2 20:54:17 10° SSW 20:58:08 54° WNW 21:02:03 10° N
Resurs 1-3 4.5 20:57:27 10° S 21:01:44 52° W 21:06:03 10° NNW
Cosmos 2279 Rocket 4.0 20:56:32 10° S 21:02:44 75° E 21:08:57 10° NNE
Spot 1 4.5 20:58:31 10° SSE 21:03:40 84° ENE 21:08:39 10° NNW
Lacrosse 4 Rocket 3.7 21:00:12 10° WNW 21:03:42 24° WSW 21:07:14 10° SSW
Helios 1B rocket 2.5 21:01:27 10° NNE 21:05:30 55° E 21:09:32 10° S
Meteor 2-10 Rocket 4.0 21:01:59 10° SSE 21:07:35 50° E 21:13:07 10° NNE
USA 234 3.4 21:05:52 10° ESE 21:12:25 82° NNE 21:18:59 10° NW
Terra 4.1 21:16:14 10° ENE 21:17:02 10° NE 21:17:50 10° NE
Cosmos 2219 Rocket 3.6 21:15:56 10° SE 21:19:32 18° E 21:23:08 10° ENE
YAOGAN 6 2.9 21:17:09 10° SSE 21:20:40 50° ENE 21:24:09 10° N
Cosmos 968 Rocket 3.6 21:18:29 10° NNW 21:23:42 79° WSW 21:28:55 10° SSE
USA 186 3.7 21:22:58 10° SSW 21:25:30 26° W 21:28:09 10° NW
SJ-11-01 4.4 21:22:20 10° S 21:27:00 79° WSW 21:31:42 10° NNW
Cosmos 2221 Rocket 4.2 21:24:05 10° SSE 21:28:08 37° E 21:32:15 10° NNE
Cosmos 2263 Rocket 3.6 21:31:45 10° NW 21:36:44 34° WSW 21:41:43 10° S
CZ-4C R/B 3.5 21:30:45 10° NW 21:37:17 46° NE 21:43:42 14° ESE
Meteor 1-26 Rocket 4.2 21:33:33 10° S 21:39:16 77° E 21:45:07 10° NNE
Cosmos 1933 4.4 21:38:17 10° SSW 21:42:10 47° WNW 21:46:04 10° N
H-2A R/B 3.9 21:42:11 13° E 21:44:18 17° ENE 21:47:10 10° NNE
Resurs 01 Rocket 4.3 21:41:49 10° SW 21:44:53 18° W 21:48:00 10° NW
Envisat 3.9 21:41:35 10° S 21:46:28 48° W 21:51:25 10° NNW
Cosmos 1908 Rocket 4.0 21:42:57 10° NNW 21:47:15 61° W 21:51:31 10° S
MOS 1-B Rocket 4.2 21:44:13 17° SE 21:48:33 51° ENE 21:53:58 10° N
Abrixas rocket 2.2 21:49:22 10° WNW 21:52:41 80° NNE 21:54:31 24° E
Cosmos 2322 Rocket 4.0 21:48:21 10° WSW 21:53:27 35° NW 21:58:37 10° NNE
NOSS 3-1 (C) 3.9 21:49:05 10° S 21:54:16 35° ESE 21:59:59 10° NE
Cosmos 1633 3.8 21:52:22 10° NNE 21:55:31 26° ENE 21:56:35 23° ESE
Cosmos 2237 4.2 21:49:57 10° SSW 21:55:39 73° ESE 22:01:23 10° NNE
MetOp-B 4.1 21:52:49 17° SSE 21:57:01 75° ENE 22:02:23 10° NNW
Sich 1 Rocket 4.5 21:52:51 10° NNW 21:57:11 49° W 22:01:33 10° SSW
H-2A R/B 2.7 21:55:25 21° ESE 21:58:08 37° ENE 22:02:39 10° N
Cosmos 2360 Rocket 2.6 21:54:40 10° SW 22:00:17 67° WNW 22:05:59 10° NNE
USA 229 DEB 3.6 21:54:03 10° SSW 22:00:52 83° SE 22:07:53 10° NE
USA 229 3.6 21:54:10 10° SSW 22:00:59 82° SE 22:07:59 10° NE
Cosmos 1782 Rocket 3.7 21:57:37 10° NNW 22:02:00 72° W 22:05:35 15° S
SL-08 RB Rocket 4.0 22:00:42 24° SE 22:03:11 52° ENE 22:07:36 10° N
Cosmos 1782 3.1 22:02:00 25° SSE 22:04:02 48° E 22:07:54 10° NNE
COSMOS 2428 2.7 21:59:33 10° SSW 22:05:11 67° ESE 22:10:52 10° NNE
SeaSat 1 2.8 22:02:37 23° SE 22:05:29 55° NE 22:10:20 10° NNW
Atlas Centaur 2 4.1 22:01:25 10° SW 22:06:10 20° S 22:08:16 18° SSE
ERS-1 Rocket 3.3 22:02:01 13° S 22:06:31 64° WSW 22:11:31 10° NNW
ATLAS 5 CENTAUR R/B 3.9 22:02:00 10° WNW 22:07:07 29° WSW 22:12:35 10° S
Cosmos 1570 Rocket 4.4 22:06:06 21° SSE 22:09:07 40° ESE 22:14:03 10° NE
Okean 1-7 3.0 22:06:00 10° S 22:10:20 89° W 22:14:47 10° N
NOSS 3-1 (A) 4.0 22:07:32 17° S 22:11:22 34° ESE 22:17:04 10° NE
Cosmos 1844 3.6 22:06:28 10° NNW 22:12:12 85° ENE 22:15:30 26° SSE
NOAA 11 4.3 22:08:54 18° S 22:13:08 80° WSW 22:18:39 10° NNW
SPOT 5 2.7 22:11:36 24° SSE 22:14:27 85° ENE 22:19:00 10° NNW
Meteor 1-10 Rocket 4.4 22:10:29 17° S 22:14:58 60° E 22:20:42 10° NNE
Meteor 1-11 Rocket 4.1 22:10:54 10° N 22:16:14 46° ENE 22:18:46 28° SE
USA 245 3.9 22:13:34 23° SSE 22:17:04 85° ENE 22:21:36 10° NNW
Cosmos 1346 Rocket 3.7 22:17:06 30° E 22:17:21 30° E 22:20:53 10° NNE
ARGOS 3.1 22:14:05 23° SSE 22:17:33 86° ENE 22:22:58 10° NNW
Cosmos 2084 3.1 22:14:27 10° NW 22:18:18 78° NE 22:19:40 39° SE
USA 267 3.9 22:12:38 10° NE 22:19:01 58° NNW 22:25:25 10° W
Okean 2 Rocket 3.4 22:14:46 10° NNW 22:19:16 67° W 22:22:14 21° S
SL-16 R/B 4.1 22:20:33 13° E 22:20:33 13° E 22:22:21 10° ENE
Cosmos 2322 4.4 22:14:23 10° SW 22:20:00 56° WNW 22:25:38 10° NNE
Cosmos 2208 Rocket 4.3 22:17:49 24° SSE 22:20:40 46° ESE 22:25:45 10° NNE
Cosmos 1745 Rocket 4.4 22:20:34 10° N 22:26:44 49° ENE 22:29:40 29° SE
Iridium 4 Rocket 3.9 22:23:44 10° NNE 22:27:26 30° E 22:27:56 29° E
ASTEX 1 3.8 22:30:03 34° SE 22:31:44 48° ENE 22:36:30 10° N
ATLAS 3B R/B 4.1 22:28:42 10° NNW 22:34:48 31° NNE 22:40:14 12° E
Cosmos 1898 Rocket 3.8 22:32:24 10° NNW 22:37:29 53° ENE 22:39:18 36° ESE
Cosmos 1844 Rocket 3.3 22:32:44 10° NW 22:38:06 49° WSW 22:41:12 24° S
NOSS 0 Rocket 4.0 22:35:07 25° S 22:38:32 52° ESE 22:44:29 10° NE
Landsat 7 3.8 22:37:06 40° SE 22:38:45 68° ENE 22:43:29 10° N
Cosmos 2237 Rocket 2.5 22:37:43 35° SSE 22:39:26 44° ESE 22:44:48 10° NE
Cosmos 2278 Rocket 2.1 22:36:01 10° NNW 22:41:43 81° ENE 22:44:01 38° SE
Cosmos 2333 4.4 22:36:27 10° SSW 22:42:11 76° WNW 22:48:00 10° NNE
Cosmos 1606 2.8 22:42:34 36° SSW 22:43:57 70° W 22:47:45 10° N
Cosmos 2333 Rocket 2.2 22:40:46 23° S 22:44:26 65° ESE 22:50:10 10° NNE
deb Chang Zheng 4 4.2 22:41:10 10° NNE 22:45:12 37° E 22:45:12 37° E
SPOT 1/Viking Rocket 3.7 22:43:33 31° S 22:46:03 73° WSW 22:51:18 10° NNW
Meteor 2-6 Rocket 4.4 22:45:21 20° SSW 22:49:41 84° W 22:55:41 10° N
CARTOSAT-1 3.6 22:51:18 52° ESE 22:52:03 63° ENE 22:56:21 10° N
IGS 5A 3.6 22:52:03 53° ESE 22:52:35 58° ENE 22:56:40 10° N
Cosmos 2151 Rocket 4.0 22:49:27 10° NNW 22:53:50 59° W 22:55:24 36° SSW
Terra 1.8 22:52:42 48° SE 22:53:52 67° ENE 22:58:37 10° N
USA 234 4.2 22:52:53 24° S 22:55:50 35° SW 23:01:44 10° WNW
Cosmos 2219 Rocket 2.3 22:57:15 10° SSW 23:02:47 77° WNW 23:08:27 10° NNE
Cosmos 1536 2.7 23:02:30 10° N 23:06:35 74° E 23:06:39 73° E
Okean 1 Rocket 3.0 23:02:12 10° N 23:06:39 74° E 23:07:09 66° SE
Meteor 1-5 Rocket 4.3 23:02:37 10° N 23:08:17 67° ENE 23:09:51 48° SE
Cosmos 1674 Rocket 3.4 23:08:25 64° SSW 23:09:04 87° W 23:13:25 10° N
Cosmos 1553 Rocket 4.0 23:07:48 31° SSW 23:11:05 83° W 23:17:18 10° N
Cosmos 468 Rocket 4.0 23:11:39 54° SE 23:12:18 59° ESE 23:17:33 10° NNE
Spot 4 4.0 23:12:49 53° ESE 23:13:26 58° ENE 23:18:08 10° N
CZ-4B R/B 3.6 23:13:00 10° NNE 23:17:33 50° E 23:17:33 50° E
H-2A R/B 2.3 23:19:18 54° SW 23:19:50 59° WSW 23:24:12 10° NNW
CZ-4C R/B 3.9 23:21:15 46° NE 23:21:15 46° NE 23:24:12 10° N
Cosmos 2315 Rocket 4.3 23:19:59 42° ESE 23:21:00 46° E 23:26:54 10° NNE
Geosat 4.0 23:16:57 10° NE 23:21:55 58° ESE 23:21:59 58° ESE
CZ-4C R/B 3.1 23:19:14 10° NW 23:26:12 58° WSW 23:28:53 40° S
CZ-4 R/B 3.7 23:21:26 10° NNE 23:26:15 71° ESE 23:26:33 68° SE
Cosmos 841 Rocket 4.4 23:27:14 32° E 23:27:14 32° E 23:31:01 10° NE
DELTA 2 DEB (DPAF) 4.1 23:27:20 72° E 23:27:29 73° ENE 23:31:59 10° N
Cosmos 371 Rocket 4.2 23:30:37 36° ENE 23:30:37 36° ENE 23:34:13 10° NE
Cosmos 1975 Rocket 3.5 23:34:31 51° ENE 23:34:31 51° ENE 23:38:20 10° NNE
USA 81 4.4 23:35:11 47° E 23:35:17 47° E 23:40:21 10° NNE
Meteor 1-27 Rocket 4.3 23:32:47 28° SW 23:35:36 54° WNW 23:41:04 10° N
Cosmos 2369 Rocket 3.9 23:31:22 10° N 23:35:50 24° NE 23:38:18 18° E
H-2A R/B 3.3 23:36:03 25° SW 23:37:38 30° W 23:41:57 10° NW
Cosmos 883 Rocket 4.3 23:37:06 55° S 23:38:34 82° E 23:44:43 10° N
Cosmos 2297 3.6 23:33:05 10° NNW 23:38:49 80° WSW 23:39:44 63° S
ALOS 2 4.1 23:39:20 25° ENE 23:39:22 25° ENE 23:42:55 10° N
Cosmos 1943 Rocket 4.5 23:36:40 10° N 23:40:13 17° NE 23:43:45 10° ENE
Cosmos 2298 Rocket 4.3 23:35:11 10° NNW 23:40:25 57° WSW 23:41:11 52° SW
SeaSat 1 3.9 23:42:24 23° WSW 23:43:17 25° WSW 23:47:19 10° NW
NOSS 3-1 (C) 4.1 23:39:00 10° WSW 23:44:48 54° NW 23:51:27 10° NE
Cosmos 1709 Rocket 3.9 23:40:24 10° N 23:46:51 90° ESE 23:48:16 57° S
Cosmos 332 Rocket 3.8 23:51:00 72° ENE 23:51:00 72° ENE 23:55:28 10° NNE
Cosmos 1937 Rocket 3.8 23:48:14 10° NNW 23:53:20 51° WSW 23:53:44 50° WSW
